Show Low, AZ

12:02 PM MST on December 16, 2017 (GMT -0700)
Show Low Municipal

Weather History for KSOW - October, 2013

Change the Weather History Date:

Thursday, October 10, 2013

  Actual Average Record
Temperature  
Mean Temperature 38 °F -  
Max Temperature 44 °F 67 °F 83 °F (1979)
Min Temperature 32 °F 44 °F 23 °F (1970)
Degree Days  
Heating Degree Days 27    
Moisture  
Dew Point 32 °F    
Average Humidity 76    
Maximum Humidity 93    
Minimum Humidity 53    
Precipitation  
Precipitation 0.23 in - - ()
Sea Level Pressure  
Sea Level Pressure 29.97 in    
Wind  
Wind Speed 23 mph (SSW)    
Max Wind Speed 39 mph    
Max Gust Speed 53 mph    
Visibility 9 miles    
Events Rain , Thunderstorm    
Averages and records for this station are not official NWS values.
T = Trace of Precipitation, MM = Missing Value Source: NWS Daily Summary

Daily Weather History Graph

Daily Weather History Graph

Search for Another Location

Airport or City:

Trip Planner

Search our weather history database for the weather conditions in past years. The results will help you decide how hot, cold, wet, or windy it might be!

Date:

Astronomy

Oct. 10, 2013 Rise Set
Actual Time 6:21 AM MST 5:51 PM MST
Civil Twilight 5:56 AM MST 6:16 PM MST
Nautical Twilight 5:27 AM MST 6:45 PM MST
Astronomical Twilight 4:58 AM MST 7:14 PM MST
Moon 12:06 PM MST (10/10) 10:42 PM MST (10/10)
Length of Visible Light 12h 20m
Length of Day
11h 30m
Waxing Crescent, 37% of the Moon is Illuminated
Oct 10
Waxing Crescent
Oct 11
First Quarter
Oct 18
Full
Oct 26
Last Quarter
Nov 3
New

Hourly Weather History & Observations

Time (MST) Temp. Windchill Dew Point Humidity Pressure Visibility Wind Dir Wind Speed Gust Speed Precip Events Conditions
5:35 AM 44.6 °F 36.6 °F 39.2 °F 81% 29.81 in 10.0 mi South 19.6 mph 32.2 mph N/A Thunderstorm Overcast
5:55 AM 44.6 °F 35.5 °F 39.2 °F 81% 29.81 in 10.0 mi South 25.3 mph 33.4 mph N/A Rain , Thunderstorm Light Thunderstorms and Rain
6:15 AM 44.6 °F 36.1 °F 39.2 °F 81% 29.82 in 10.0 mi SSW 21.9 mph 35.7 mph N/A Rain Light Rain
6:35 AM 44.6 °F 34.7 °F 39.2 °F 81% 29.82 in 8.0 mi SSW 29.9 mph 38.0 mph N/A Rain Light Rain
6:55 AM 42.8 °F 33.1 °F 39.2 °F 87% 29.85 in 1.8 mi SW 25.3 mph 39.1 mph 0.05 in Rain , Thunderstorm Light Thunderstorms and Rain
7:15 AM 41.0 °F 31.4 °F 37.4 °F 87% 29.84 in 10.0 mi SW 21.9 mph 36.8 mph N/A Rain , Thunderstorm Light Rain
7:35 AM 41.0 °F 29.8 °F 37.4 °F 87% 29.86 in 9.0 mi SW 29.9 mph 42.6 mph N/A Rain Light Rain
7:55 AM 39.2 °F 27.6 °F 37.4 °F 93% 29.87 in 7.0 mi SW 28.8 mph 36.8 mph N/A Rain , Thunderstorm Light Rain
8:15 AM 39.2 °F 29.0 °F 37.4 °F 93% 29.88 in 6.0 mi SW 21.9 mph 32.2 mph N/A Rain , Thunderstorm Light Thunderstorms and Rain
8:35 AM 41.0 °F 29.7 °F 37.4 °F 87% 29.88 in 9.0 mi SSW 31.1 mph 46.0 mph 0.01 in Rain , Thunderstorm Light Thunderstorms and Rain
8:55 AM 41.0 °F 31.4 °F 37.4 °F 87% 29.89 in 10.0 mi SW 21.9 mph 31.1 mph 0.01 in   Overcast
9:15 AM 41.0 °F 30.7 °F 37.4 °F 87% 29.90 in 10.0 mi SW 25.3 mph 34.5 mph N/A   Overcast
9:35 AM 39.2 °F 28.0 °F 35.6 °F 87% 29.92 in 1.2 mi SW 26.5 mph 39.1 mph 0.04 in Rain Heavy Rain
9:55 AM 35.6 °F 22.5 °F 33.8 °F 93% 29.92 in 1.2 mi SW 29.9 mph 35.7 mph 0.09 in Rain Rain
10:15 AM 35.6 °F 23.0 °F 33.8 °F 93% 29.92 in 1.2 mi SW 27.6 mph 36.8 mph 0.03 in Rain Light Rain
10:35 AM 37.4 °F 26.6 °F 35.6 °F 93% 29.93 in 1.8 mi SSW 21.9 mph 33.4 mph 0.06 in Thunderstorm Overcast
10:55 AM 39.2 °F 28.0 °F 37.4 °F 93% 29.93 in 2.5 mi SSW 26.5 mph 36.8 mph 0.06 in   Overcast
11:15 AM 39.2 °F 27.8 °F 37.4 °F 93% 29.95 in 2.5 mi SW 27.6 mph 34.5 mph 0.01 in Rain Light Rain
11:35 AM 39.2 °F 26.6 °F 37.4 °F 93% 29.96 in 10.0 mi SW 34.5 mph 42.6 mph 0.02 in Rain Light Rain
11:55 AM 41.0 °F 28.5 °F 37.4 °F 87% 29.94 in 10.0 mi SW 39.1 mph 46.0 mph 0.02 in   Mostly Cloudy
12:15 PM 41.0 °F 28.5 °F 37.4 °F 87% 29.92 in 10.0 mi SSW 39.1 mph 48.3 mph N/A   Scattered Clouds
12:35 PM 42.8 °F 31.6 °F 37.4 °F 81% 29.92 in 10.0 mi SSW 34.5 mph 47.2 mph N/A   Scattered Clouds
12:55 PM 42.8 °F 31.4 °F 35.6 °F 76% 29.93 in 10.0 mi SSW 35.7 mph 48.3 mph N/A   Scattered Clouds
1:15 PM 42.8 °F 31.1 °F 35.6 °F 76% 29.93 in 10.0 mi SSW 38.0 mph 52.9 mph N/A   Scattered Clouds
1:35 PM 42.8 °F 31.1 °F 35.6 °F 76% 29.94 in 10.0 mi SSW 38.0 mph 48.3 mph N/A   Mostly Cloudy
1:55 PM 44.6 °F 34.6 °F 32.0 °F 61% 29.94 in 10.0 mi SSW 31.1 mph 47.2 mph N/A   Mostly Cloudy
2:15 PM 44.6 °F 33.9 °F 32.0 °F 61% 29.95 in 10.0 mi SSW 35.7 mph 46.0 mph N/A   Partly Cloudy
2:35 PM 44.6 °F 35.5 °F 30.2 °F 57% 29.97 in 10.0 mi SSW 25.3 mph 42.6 mph N/A   Clear
2:55 PM 44.6 °F 34.9 °F 28.4 °F 53% 29.98 in 10.0 mi SSW 28.8 mph 38.0 mph N/A   Clear
3:15 PM 44.6 °F 34.7 °F 28.4 °F 53% 29.98 in 10.0 mi SSW 29.9 mph 41.4 mph N/A   Clear
3:35 PM 44.6 °F 35.5 °F 28.4 °F 53% 29.99 in 10.0 mi SSW 25.3 mph 35.7 mph N/A   Clear
3:55 PM 44.6 °F 35.1 °F 28.4 °F 53% 30.00 in 10.0 mi SSW 27.6 mph 35.7 mph N/A   Clear
4:15 PM 44.6 °F 35.1 °F 28.4 °F 53% 29.99 in 10.0 mi SSW 27.6 mph 32.2 mph N/A   Clear
4:35 PM 44.6 °F 36.6 °F 28.4 °F 53% 30.01 in 10.0 mi SSW 19.6 mph 29.9 mph N/A   Clear
4:55 PM 44.6 °F 37.2 °F 28.4 °F 53% 30.02 in 10.0 mi SW 17.3 mph 20.7 mph N/A   Clear
5:15 PM 42.8 °F 35.8 °F 28.4 °F 57% 30.02 in 10.0 mi SSW 13.8 mph - N/A   Clear
5:35 PM 41.0 °F 35.2 °F 28.4 °F 61% 30.05 in 10.0 mi WSW 9.2 mph - N/A   Clear
5:55 PM 41.0 °F 34.3 °F 28.4 °F 61% 30.04 in 10.0 mi SSW 11.5 mph - N/A   Clear
6:15 PM 39.2 °F 35.9 °F 28.4 °F 65% 30.05 in 10.0 mi SSW 4.6 mph - N/A   Clear
6:35 PM 37.4 °F 33.8 °F 28.4 °F 70% 30.06 in 10.0 mi South 4.6 mph - N/A   Clear
6:55 PM 37.4 °F 32.1 °F 28.4 °F 70% 30.05 in 10.0 mi South 6.9 mph - N/A   Clear
7:15 PM 35.6 °F 27.5 °F 28.4 °F 75% 30.05 in 10.0 mi South 11.5 mph - N/A   Clear
7:35 PM 35.6 °F 28.6 °F 28.4 °F 75% 30.06 in 10.0 mi SSW 9.2 mph - N/A   Clear
7:55 PM 35.6 °F 29.2 °F 26.6 °F 70% 30.06 in 10.0 mi SW 8.1 mph - N/A   Clear
8:15 PM 33.8 °F 26.4 °F 26.6 °F 75% 30.07 in 10.0 mi SW 9.2 mph - N/A   Clear
8:35 PM 33.8 °F 27.0 °F 26.6 °F 75% 30.07 in 10.0 mi SW 8.1 mph - N/A   Clear
8:55 PM 33.8 °F 28.6 °F 26.6 °F 75% 30.08 in 10.0 mi SW 5.8 mph - N/A   Clear
9:15 PM 33.8 °F 27.7 °F 26.6 °F 75% 30.08 in 10.0 mi SSW 6.9 mph - N/A   Clear
9:35 PM 33.8 °F 27.7 °F 26.6 °F 75% 30.08 in 10.0 mi SSW 6.9 mph - N/A   Clear
9:55 PM 32.0 °F 28.7 °F 26.6 °F 80% 30.08 in 10.0 mi SW 3.5 mph - N/A   Clear
10:15 PM 35.6 °F 32.8 °F 26.6 °F 70% 30.08 in 10.0 mi SW 3.5 mph - N/A   Clear
10:35 PM 32.0 °F 28.7 °F 26.6 °F 80% 30.08 in 10.0 mi SSW 3.5 mph - N/A   Clear
10:55 PM 32.0 °F 28.7 °F 26.6 °F 80% 30.08 in 10.0 mi SW 3.5 mph - N/A   Clear
11:15 PM 32.0 °F 28.7 °F 26.6 °F 80% 30.08 in 10.0 mi WSW 3.5 mph - N/A   Clear
11:55 PM 32.0 °F 27.5 °F 26.6 °F 80% 30.08 in 10.0 mi South 4.6 mph - N/A   Clear